Location: Gombori
(14.9797°N, 2.9419°W)
Time: 18:51:24
(UTC+00:00)

CZ-4 R/B - Visible Passes

Search period start: 03 December 2021 00:00
Search period end: 13 December 2021 00:00
Orbit: 531 x 595 km, 97.8° (Epoch: 03 December)

Date Brightness Start Highest point End Pass type
(mag) Time Alt. Az. Time Alt. Az. Time Alt. Az.
03 Dec 2.2 19:18:39 10° SSE 19:21:25 41° SSE 19:21:25 41° SSE visible
04 Dec 2.1 19:18:22 10° SSE 19:21:13 42° SSE 19:21:13 42° SSE visible
05 Dec 2.1 19:18:05 10° SSE 19:21:00 44° SSE 19:21:00 44° SSE visible
06 Dec 2.0 19:17:48 10° SSE 19:20:46 45° SSE 19:20:46 45° SSE visible
07 Dec 1.9 19:17:31 10° SSE 19:20:33 47° SSE 19:20:33 47° SSE visible
08 Dec 1.9 19:17:14 10° SSE 19:20:20 48° SSE 19:20:20 48° SSE visible
09 Dec 1.8 19:16:58 10° SSE 19:20:07 50° SSE 19:20:07 50° SSE visible
10 Dec 1.7 19:16:41 10° SSE 19:19:53 51° SSE 19:19:53 51° SSE visible
11 Dec 1.7 19:16:24 10° SSE 19:19:40 53° SE 19:19:40 53° SE visible
12 Dec 1.6 19:16:06 10° SSE 19:19:26 55° SE 19:19:26 55° SE visible
